Weather History for New River MCAS, NC

Change the Weather History Date:

Sunday, October 28, 2012

  Actual Average Record
Temperature  
Mean Temperature 60 °F -  
Max Temperature 62 °F 69 °F 82 °F (2000)
Min Temperature 57 °F 47 °F 36 °F (2008)
Degree Days  
Heating Degree Days 6    
Growing Degree Days 10 (Base 50)    
Moisture  
Dew Point 54 °F    
Average Humidity 80    
Maximum Humidity 88    
Minimum Humidity 63    
Precipitation  
Precipitation 1.75 in - - ()
Sea Level Pressure  
Sea Level Pressure 29.47 in    
Wind  
Wind Speed 23 mph (North)    
Max Wind Speed 29 mph    
Max Gust Speed 39 mph    
Visibility 7 miles    
Events Rain    
Averages and records for this station are not official NWS values.
T = Trace of Precipitation, MM = Missing Value Source: NWS Daily Summary

Daily Weather History Graph

Daily Weather History Graph

Search for Another Location

Airport:

Trip Planner

Search our weather history database for the weather conditions in past years. The results will help you decide how hot, cold, wet, or windy it might be!

Date:

Astronomy

Oct. 28, 2012 Rise Set
Actual Time 7:27 AM EDT 6:19 PM EDT
Civil Twilight 7:01 AM EDT 6:45 PM EDT
Nautical Twilight 6:31 AM EDT 7:14 PM EDT
Astronomical Twilight 6:02 AM EDT 7:44 PM EDT
Moon 5:35 PM EDT (10/28) 6:19 AM EDT (10/28)
Length of Visible Light 11h 44m
Length of Day
10h 52m
Waxing Gibbous, 99% of the Moon is Illuminated
Oct 28
Waxing Gibbous
Oct 29
Full
Nov 6
Last Quarter
Nov 13
New
Nov 20
First Quarter

Hourly Weather History & Observations

Time (EDT) Temp. Dew Point Humidity Pressure Visibility Wind Dir Wind Speed Gust Speed Precip Events Conditions
12:48 AM 62.6 °F 57.2 °F 82% 29.51 in 6.0 mi NNE 26.5 mph 35.7 mph 0.07 in Rain Rain
1:04 AM 62.6 °F 57.2 °F 82% 29.50 in 6.0 mi NNE 25.3 mph 39.1 mph 0.01 in Rain Light Rain
1:56 AM 62.1 °F 57.0 °F 84% 29.51 in 4.0 mi North 23.0 mph 38.0 mph 0.08 in Rain Rain
2:29 AM 60.8 °F 57.2 °F 88% 29.49 in 3.0 mi North 23.0 mph 31.1 mph 0.15 in Rain Heavy Rain
2:37 AM 60.8 °F 57.2 °F 88% 29.49 in 3.0 mi NNE 23.0 mph 32.2 mph 0.18 in Rain Heavy Rain
2:56 AM 62.1 °F 57.9 °F 86% 29.50 in 2.5 mi North 21.9 mph 34.5 mph 0.27 in Rain Heavy Rain
3:18 AM 62.6 °F 57.2 °F 82% 29.48 in 3.0 mi North 21.9 mph 35.7 mph 0.12 in Rain Heavy Rain
3:56 AM 62.1 °F 57.0 °F 84% 29.47 in 4.0 mi NNE 21.9 mph 32.2 mph 0.29 in Rain Rain
4:56 AM 62.1 °F 57.9 °F 86% 29.47 in 6.0 mi NNE 23.0 mph 34.5 mph 0.16 in Rain Rain
5:22 AM 62.6 °F 57.2 °F 82% 29.46 in 2.5 mi NNE 25.3 mph 32.2 mph 0.07 in Rain Heavy Rain
5:49 AM 60.8 °F 57.2 °F 88% 29.45 in 1.8 mi NNE 20.7 mph 32.2 mph 0.26 in Rain Heavy Rain
5:56 AM 62.1 °F 57.0 °F 84% 29.46 in 2.0 mi NNE 24.2 mph 35.7 mph 0.29 in Rain Heavy Rain
6:20 AM 60.8 °F 57.2 °F 88% 29.45 in 4.0 mi NNE 20.7 mph 34.5 mph 0.08 in Rain Rain
6:37 AM 60.8 °F 57.2 °F 88% 29.45 in 2.5 mi NNE 25.3 mph 35.7 mph 0.15 in Rain Heavy Rain
6:56 AM 61.0 °F 55.9 °F 83% 29.46 in 2.0 mi NNE 26.5 mph 36.8 mph 0.24 in Rain Heavy Rain
7:23 AM 60.8 °F 55.4 °F 82% 29.45 in 3.0 mi NNE 28.8 mph 38.0 mph 0.12 in Rain Heavy Rain
7:56 AM 60.1 °F 55.9 °F 86% 29.47 in 5.0 mi North 23.0 mph 31.1 mph 0.20 in Rain Light Rain
8:17 AM 60.8 °F 55.4 °F 82% 29.47 in 8.0 mi North 18.4 mph 27.6 mph 0.01 in Rain Light Rain
8:39 AM 60.8 °F 55.4 °F 82% 29.47 in 9.0 mi North 16.1 mph 28.8 mph 0.03 in Rain Light Rain
8:56 AM 60.1 °F 55.9 °F 86% 29.48 in 10.0 mi North 18.4 mph 26.5 mph 0.04 in Rain Light Rain
9:56 AM 60.1 °F 55.9 °F 86% 29.47 in 10.0 mi North 17.3 mph 31.1 mph 0.09 in Rain Light Rain
10:44 AM 59.0 °F 55.4 °F 88% 29.45 in 9.0 mi NNW 16.1 mph - 0.04 in Rain Light Rain
10:56 AM 59.0 °F 55.0 °F 87% 29.46 in 9.0 mi NW 12.7 mph 21.9 mph 0.05 in Rain Light Rain
11:56 AM 57.9 °F 54.0 °F 87% 29.46 in 10.0 mi NW 17.3 mph 24.2 mph 0.03 in Rain Light Rain
12:37 PM 59.0 °F 53.6 °F 82% 29.44 in 10.0 mi NNW 24.2 mph 33.4 mph 0.01 in Rain Light Rain
12:56 PM 59.0 °F 54.0 °F 83% 29.44 in 10.0 mi NNW 24.2 mph 39.1 mph 0.01 in   Overcast
1:20 PM 59.0 °F 53.6 °F 82% 29.44 in 10.0 mi NNW 25.3 mph 34.5 mph N/A   Overcast
1:56 PM 59.0 °F 53.1 °F 81% 29.45 in 10.0 mi NNW 21.9 mph 34.5 mph N/A   Overcast
2:56 PM 59.0 °F 52.0 °F 78% 29.44 in 10.0 mi NNW 24.2 mph 34.5 mph N/A   Overcast
3:56 PM 59.0 °F 52.0 °F 78% 29.45 in 10.0 mi NNW 19.6 mph 28.8 mph N/A   Overcast
4:56 PM 60.1 °F 50.0 °F 69% 29.44 in 10.0 mi NNW 19.6 mph 35.7 mph N/A   Overcast
5:56 PM 60.1 °F 48.9 °F 67% 29.47 in 10.0 mi NW 23.0 mph 29.9 mph N/A   Overcast
6:56 PM 60.1 °F 48.9 °F 67% 29.48 in 10.0 mi NW 20.7 mph 33.4 mph N/A   Overcast
7:56 PM 60.1 °F 48.0 °F 64% 29.48 in 10.0 mi NNW 23.0 mph 31.1 mph N/A   Overcast
8:20 PM 60.8 °F 48.2 °F 63% 29.47 in 10.0 mi NW 19.6 mph 28.8 mph N/A   Overcast
8:56 PM 60.1 °F 48.0 °F 64% 29.48 in 10.0 mi NW 24.2 mph 33.4 mph N/A   Overcast
9:56 PM 59.0 °F 48.0 °F 67% 29.49 in 10.0 mi NW 21.9 mph 28.8 mph N/A   Overcast
10:31 PM 59.0 °F 48.2 °F 67% 29.49 in 10.0 mi NW 19.6 mph 32.2 mph N/A   Overcast
10:56 PM 59.0 °F 48.9 °F 69% 29.48 in 10.0 mi NW 23.0 mph 34.5 mph N/A   Overcast
11:56 PM 57.9 °F 48.9 °F 72% 29.48 in 10.0 mi NW 19.6 mph 28.8 mph N/A   Overcast